Weather History for Flamingo Airport, Bonaire, Bonaire

Change the Weather History Date:

Sunday, November 11, 2012

  Actual Average Record
Temperature  
Mean Temperature 84 °F -  
Max Temperature 89 °F 86 °F - ()
Min Temperature 80 °F 78 °F - ()
Cooling Degree Days 20    
Growing Degree Days 34 (Base 50)    
Moisture  
Dew Point 75 °F    
Average Humidity 74    
Maximum Humidity 89    
Minimum Humidity 61    
Precipitation  
Precipitation 0.00 in - - ()
Sea Level Pressure  
Sea Level Pressure 29.86 in    
Wind  
Wind Speed 8 mph ()    
Max Wind Speed 16 mph    
Max Gust Speed -    
Visibility 6.2 miles    
Events Rain    
T = Trace of Precipitation, MM = Missing Value Source: Averaged Metar Reports

Daily Weather History Graph

Daily Weather History Graph

Search for Another Location

Airport:

Trip Planner

Search our weather history database for the weather conditions in past years. The results will help you decide how hot, cold, wet, or windy it might be!

Date:

Astronomy

Nov. 11, 2012 Rise Set
Actual Time 6:29 AM AST 6:05 PM AST
Civil Twilight 6:07 AM AST 6:27 PM AST
Nautical Twilight 5:41 AM AST 6:52 PM AST
Astronomical Twilight 5:16 AM AST 7:18 PM AST
Moon 4:01 AM AST (11/11) 4:09 PM AST (11/11)
Length of Visible Light 12h 20m
Length of Day
11h 35m
Waning Crescent, 7% of the Moon is Illuminated
Nov 11
Waning Crescent
Nov 13
New
Nov 20
First Quarter
Nov 28
Full
Dec 6
Last Quarter

Hourly Weather History & Observations

Time (AST) Temp. Heat Index Dew Point Humidity Pressure Visibility Wind Dir Wind Speed Gust Speed Precip Events Conditions
12:00 AM 82.4 °F 89.5 °F 75.2 °F 79% 29.89 in - North - - N/A   Unknown
1:00 AM 82.4 °F 89.5 °F 75.2 °F 79% 29.86 in - North - - N/A   Unknown
2:00 AM 82.4 °F 89.5 °F 75.2 °F 79% 29.83 in - North - - N/A   Unknown
3:00 AM 82.4 °F 89.5 °F 75.2 °F 79% 29.83 in - North - - N/A   Unknown
4:00 AM 80.6 °F 86.2 °F 75.2 °F 84% 29.83 in - North - - N/A   Unknown
5:00 AM 80.6 °F 86.2 °F 75.2 °F 84% 29.83 in - North - - N/A   Unknown
6:00 AM 82.4 °F 89.5 °F 75.2 °F 79% 29.86 in - North - - N/A   Unknown
7:00 AM 82.4 °F 89.5 °F 75.2 °F 79% 29.86 in - ENE 4.6 mph - N/A   Unknown
8:00 AM 85 °F - 76 °F 67% 29.91 in 22 mi East 11.5 mph - -   Partly Cloudy
8:00 AM 84.2 °F 92.3 °F 75.2 °F 74% 29.89 in 6.2 mi East 11.5 mph - N/A   Scattered Clouds
9:00 AM 87.8 °F 97.6 °F 75.2 °F 66% 29.92 in 6.2 mi East 13.8 mph - N/A   Scattered Clouds
10:00 AM 87.8 °F 97.6 °F 75.2 °F 66% 29.92 in 6.2 mi East 15.0 mph - N/A   Scattered Clouds
12:00 PM 87.8 °F 97.6 °F 75.2 °F 66% 29.89 in 6.2 mi East 15.0 mph - N/A   Mostly Cloudy
1:00 PM 87.8 °F 97.6 °F 75.2 °F 66% 29.86 in 6.2 mi East 16.1 mph - N/A   Mostly Cloudy
2:00 PM 87 °F - 75 °F 61%  in - ENE 4.6 mph - -   Clear
2:00 PM 87.8 °F 97.6 °F 75.2 °F 66% 29.83 in - North - - N/A   Unknown
3:00 PM 87.8 °F 97.6 °F 75.2 °F 66% 29.80 in - North - - N/A   Unknown
4:00 PM 87.8 °F 99.7 °F 77.0 °F 70% 29.80 in 6.2 mi East 16.1 mph - N/A   Mostly Cloudy
5:00 PM 85 °F - 75 °F 65%  in 6 mi ENE 4.6 mph - -   Clear
5:00 PM 86.0 °F 95.1 °F 75.2 °F 70% 29.83 in - North - - N/A   Unknown
6:00 PM 82.4 °F 89.5 °F 75.2 °F 79% 29.83 in 6.2 mi East 10.4 mph - N/A   Scattered Clouds
7:00 PM 82.4 °F 89.5 °F 75.2 °F 79% 29.83 in 6.2 mi East 6.9 mph - N/A   Partly Cloudy
8:00 PM 83 °F - 76 °F 75%  in 6 mi East 6.9 mph - -   Clear
8:00 PM 82.4 °F 90.9 °F 77.0 °F 84% 29.86 in 6.2 mi East 6.9 mph - N/A   Partly Cloudy
9:00 PM 82.4 °F 89.5 °F 75.2 °F 79% 29.86 in - North - - N/A   Unknown
10:00 PM 82.4 °F 89.5 °F 75.2 °F 79% 29.89 in - ENE 4.6 mph - N/A   Unknown
11:00 PM 80.6 °F 87.1 °F 77.0 °F 89% 29.89 in - North - - N/A Rain Light Rain